Regional Weather Roundup
Issued by NWS

Home | Current Version | Previous Version | Text Only | Print | Product List | Glossary Off
Versions: 1 2 3 4 5 6 7 8 9 10 11 12 13 14 15 16 17 18 19 20 21 22 23 24 25 26 27 28 29 30 31 32 33 34 35 36 37 38 39 40 41 42 43 44 45 46 47 48 49 50

000
ASUS43 KOAX 280002
RWRNE

WEATHER ROUNDUP FOR NEBRASKA
NATIONAL WEATHER SERVICE OMAHA NE
700 PM CDT SAT AUG 27 2016

NOTES: SATELLITE DATA IS BEING USED TO AUGMENT CLOUD COVER ABOVE
       12000 FEET.
       "FAIR" INDICATES FEW OR NO CLOUDS BELOW 12,000 FEET WITH NO
       SIGNIFICANT WEATHER AND/OR OBSTRUCTIONS TO VISIBILITY.

  * THESE STATIONS DO NOT REPORT WEATHER SUCH AS RAIN...SNOW OR FOG.

NEZ001>004-019>022-054>056-280100-
NEBRASKA PANHANDLE

CITY           SKY/WX    TMP DP  RH WIND       PRES   REMARKS
SCOTTSBLUFF    MOSUNNY   82  53  36 E10       29.97S
6HR MIN TEMP:  77; 6HR MAX TEMP:  85;

ALLIANCE       SUNNY     80  51  36 S16       29.98S
6HR MIN TEMP:  73; 6HR MAX TEMP:  84;

CHADRON        SUNNY     87  39  18 S14       29.89S
6HR MIN TEMP:  75; 6HR MAX TEMP:  89;

KIMBALL        SUNNY     81  44  27 S14       30.04S
SIDNEY         SUNNY     81  49  32 S14       30.04R
6HR MIN TEMP:  72; 6HR MAX TEMP:  84;

$$

NEZ057>060-069>072-079>082-280100-
SOUTHWEST NEBRASKA

CITY           SKY/WX    TMP DP  RH WIND       PRES   REMARKS
NORTH PLATTE   CLOUDY    82  62  50 S8        29.98R
6HR MIN TEMP:  78; 6HR MAX TEMP:  86;

IMPERIAL       CLOUDY    80  60  50 S10       30.01R
6HR MIN TEMP:  72; 6HR MAX TEMP:  83;

LEXINGTON      CLOUDY    79  64  58 S12       30.00R
MCCOOK         CLOUDY    81  63  54 SE9       29.98S
6HR MIN TEMP:  78; 6HR MAX TEMP:  85;

OGALLALA       CLOUDY    85  49  29 S12G17    30.00R
$$

NEZ005>010-023>029-035>040-094-280100-
NORTH CENTRAL NEBRASKA

CITY           SKY/WX    TMP DP  RH WIND       PRES   REMARKS
VALENTINE      SUNNY     84  51  31 SW12      29.93S
6HR MIN TEMP:  77; 6HR MAX TEMP:  86;

AINSWORTH      MOSUNNY   82  61  49 S8        29.95S
BROKEN BOW     SUNNY     80  62  54 S14G23    29.99R
6HR MIN TEMP:  76; 6HR MAX TEMP:  83;

O`NEILL        SUNNY     84  58  41 S12       29.97R
ORD            SUNNY     82  59  45 S13       29.96S
6HR MIN TEMP:  74; 6HR MAX TEMP:  84;

THEDFORD       MOSUNNY   85  58  39 S15       29.98S
$$

NEZ041-046>049-061>064-073>077-083>087-280100-
SOUTH CENTRAL NEBRASKA

CITY           SKY/WX    TMP DP  RH WIND       PRES   REMARKS
GRAND ISLAND   SUNNY     81  64  56 SE12      29.99S
6HR MIN TEMP:  77; 6HR MAX TEMP:  85;

AURORA         SUNNY     80  64  58 SE7       29.99S
HASTINGS       SUNNY     81  62  52 S8        30.00S
6HR MIN TEMP:  77; 6HR MAX TEMP:  85;

HEBRON         SUNNY     80  68  66 SE6       29.99S
HOLDREGE       MOSUNNY   79  63  58 S9        30.00S
KEARNEY *      CLOUDY    81  63  54 S10       29.98S
YORK           SUNNY     79  64  61 S6        29.99S
$$

NEZ011>018-030>034-042>045-280100-
NORTHEAST NEBRASKA

CITY           SKY/WX    TMP DP  RH WIND       PRES   REMARKS
NORFOLK        SUNNY     79  62  56 S7        29.98S
6HR MIN TEMP:  74; 6HR MAX TEMP:  81;

ALBION         SUNNY     80  63  56 S9        29.99S
BLAIR          SUNNY     80  67  63 CALM      29.99S
FREMONT        SUNNY     80  65  61 SE5       29.99S
TEKAMAH        SUNNY     79  68  69 S6        29.98R
6HR MIN TEMP:  76; 6HR MAX TEMP:  81;

WAYNE          SUNNY     77  68  74 S6        29.99S
$$

NEZ050>053-065>068-078-088>093-280100-
SOUTHEAST NEBRASKA

CITY           SKY/WX    TMP DP  RH WIND       PRES   REMARKS
LINCOLN        SUNNY     83  63  50 S8        29.99S
6HR MIN TEMP:  80; 6HR MAX TEMP:  86;

OMAHA EPPLEY   MOSUNNY   82  65  56 S7        29.98R
6HR MIN TEMP:  79; 6HR MAX TEMP:  84;

BEATRICE       SUNNY     82  66  58 CALM      29.99S
FALLS CITY     MOSUNNY   83  71  67 SE3       29.98S
6HR MIN TEMP:  80; 6HR MAX TEMP:  85;

NEBRASKA CITY  SUNNY     80  67  63 S5        29.99S
PLATTSMOUTH    SUNNY     80  68  67 SE5       29.99S
$$

NEZ044-045-051>053-067-280100-
OMAHA AREA

CITY           SKY/WX    TMP DP  RH WIND       PRES   REMARKS
OMAHA EPPLEY   MOSUNNY   82  65  56 S7        29.98R
6HR MIN TEMP:  79; 6HR MAX TEMP:  84;

BLAIR          SUNNY     80  67  63 CALM      29.99S
FREMONT        SUNNY     80  65  61 SE5       29.99S
MILLARD        SUNNY     82  68  63 SE7       29.98S
OFFUTT AFB     SUNNY     81  68  66 S6        29.98R
PLATTSMOUTH    SUNNY     80  68  67 SE5       29.99S
WAHOO          FAIR      80  69  67 CALM      29.98S
$$




USA.gov is the U.S. government's official web portal to all federal, state and local government web resources and services.